Location: Nitra
(0.0000°N, 18.0833°E)
Time: 21:24:01
(UTC+02:00)

A-11 Canister half - Pass Details

Date: 01 April 2023
Orbit: 1526 x 1682 km, 47.3° (Epoch: 08 June)

Event Time Altitude Azimuth Distance (km) Brightness Sun altitude
Rises 00:59:42 0° 306° (NW) 4,720 - -85.2°
Reaches altitude 10° 01:02:57 10° 300° (WNW) 3,721 - -84.8°
Maximum altitude 01:11:43 45° 230° (SW) 1,988 - -83.4°
Drops below altitude 10° 01:20:26 10° 160° (SSE) 3,693 - -81.6°
Sets 01:23:41 0° 153° (SSE) 4,682 - -80.9°
